Flag for U.S.A. Weather past 2 weeks in Kalispell, Montana, U.S.A.

Now
36 °F

Light rain. Mostly cloudy.


Feels Like: 29 °F
Forecast: 33 / 40 °F
Wind: 9 mph from South

Location: Kalispell - Glacier Park International

Current Time: Dec 21, 2014 at 3:28:40 AM

Latest Report: Dec 21, 2014 at 2:55 AM


Visibility: N/A

Pressure: 29.51 "Hg

Humidity: 97%

Dew point: 35 °F

Location of KalispellLocation

Historic Weather in Kalispell — Graph

°F

Kalispell temperature yesterday

Maximum temperature yesterday: 36 °F (at 1:55 PM)
Minimum temperature yesterday: 26 °F (at 8:55 AM)
Average temperature yesterday: 32 °F

Past Weeks' High & Low Weather Summary

 TemperatureHumidityPressure
High44 °F (Dec 7, 1:55 PM)100% (Dec 6, 5:04 AM)30.39 "Hg (Dec 6, 5:04 AM)
Low19 °F (Dec 8, 3:55 AM)70% (Dec 17, 2:55 PM)29.53 "Hg (Dec 21, 1:55 AM)
Average31 °F94%30.06 "Hg
* Reported Dec 6 1:55 AM — Dec 21 1:55 AM, Kalispell, Weather by CustomWeather, © 2014

Note: Actual official high and low records may vary slightly from our data, if they occured in-between our weather recording intervals... More about our weather records

Advertising

Kalispell weather history for previous 24 hours

 ConditionsComfort  
Time TempWeatherWind HumidityBarometerVisibility
1:55 AM
Dec 21
34 °FLight rain. Mostly cloudy.13 mph97%29.53 "Hg7 mi
12:55 AM36 °FLight rain. Overcast.10 mph92%29.55 "Hg10 mi
11:55 PM
Dec 20
33 °FLight rain. Fog.5 mph96%29.61 "Hg6 mi
10:55 PM32 °FLight snow. Ice fog.No wind100%29.66 "Hg5 mi
9:55 PM32 °FMostly cloudy.No wind100%29.70 "Hg8 mi
8:55 PM32 °FMostly cloudy.No wind96%29.73 "Hg10 mi
7:55 PM32 °FOvercast.No wind96%29.75 "Hg10 mi
6:55 PM32 °FOvercast.No wind96%29.77 "Hg10 mi
5:55 PM33 °FMostly cloudy.No wind96%29.79 "Hg10 mi
4:55 PM34 °FLight snow. Mostly cloudy.No wind88%29.81 "Hg9 mi
3:55 PM35 °FLight snow. More clouds than sun.No wind85%29.84 "Hg4 mi
2:55 PM35 °FOvercast.No wind85%29.84 "Hg10 mi
1:55 PM36 °FOvercast.No wind79%29.86 "Hg10 mi
12:55 PM35 °FMostly cloudy.No wind85%29.89 "Hg10 mi
11:55 AM33 °FOvercast.3 mph92%29.92 "Hg10 mi
10:55 AM32 °FLow clouds.No wind96%29.95 "Hg7 mi
10:04 AM30 °FIce fog.No wind100%29.89 "Hg1 mi
8:55 AM26 °FIce fog.No wind96%29.98 "Hg0 mi
8:04 AM29 °FOvercast.No wind96%29.91 "Hg7 mi
7:57 AM28 °FIce fog.No wind100%29.91 "Hg2 mi
6:55 AM29 °FPassing clouds.No wind100%30.00 "Hg7 mi
5:55 AM30 °FPassing clouds.3 mph96%30.01 "Hg10 mi
4:55 AM31 °FOvercast.No wind96%30.04 "Hg10 mi
3:55 AM32 °FPassing clouds.No wind96%30.03 "Hg10 mi
Weather by CustomWeather, © 2014

See weather overviewHow to use our weather pages